FW3260 Weather Reports


Display with metric or nautical units.
time (UTC)temp
F
wind
direction
speed
MPH
gust
MPH
rain 1hr
in
rain 24hr
in
rain mn
in
humidity
%
barometer
mb
20260903182519 76 90 2.0 4.0 0.00 0.28 0.28 85 1013.9
20260903181539 76 90 1.0 3.0 0.00 0.28 0.28 83 1014.1
20260903180519 76 0.0 1.0 0.00 0.28 0.28 83 1014.2
20260903175519 76 113 2.0 7.0 0.00 0.28 0.28 83 1013.9
20260903174519 76 113 2.0 4.0 0.00 0.28 0.28 84 1014.0
20260903173519 76 68 1.0 3.0 0.00 0.28 0.28 84 1014.2
20260903172519 76 0.0 0.0 0.00 0.28 0.28 84 1014.4
20260903170519 76 90 2.0 5.0 0.00 0.28 0.28 82 1014.2
20260903165519 75 0.0 2.0 0.00 0.28 0.28 85 1014.3
20260903164507 74 180 1.0 4.0 0.00 0.28 0.28 86 1014.3
20260903164018 74 23 2.0 4.0 0.00 0.28 0.28 85 1014.3
20260903163017 74 180 1.0 3.0 0.00 0.28 0.28 87 1014.3
20260903162038 73 338 1.0 3.0 0.00 0.28 0.28 88 1014.4
20260903161018 72 315 1.0 2.0 0.00 0.28 0.28 89 1014.4
20260903160017 72 0 1.0 3.0 0.00 0.28 0.28 89 1014.4
20260903155039 71 68 1.0 3.0 0.00 0.28 0.28 91 1014.4
20260903154019 70 68 1.0 2.0 0.00 0.28 0.28 93 1014.6
20260903153019 70 0.0 0.0 0.00 0.28 0.28 93 1014.6
20260903152019 69 0.0 0.0 0.00 0.28 0.28 94 1014.9
20260903151039 69 0.0 0.0 0.00 0.28 0.28 94 1015.1
20260903150019 69 0.0 0.0 0.00 0.28 0.28 95 1015.0
20260903145019 68 0.0 0.0 0.00 0.28 0.28 96 1015.1
20260903144019 68 0.0 2.0 0.00 0.28 0.28 97 1015.0
20260903143019 67 0.0 2.0 0.00 0.28 0.28 96 1015.3
20260903142019 66 0.0 1.0 0.00 0.28 0.28 96 1015.5
20260903141019 66 0.0 0.0 0.00 0.28 0.28 96 1015.6
20260903140019 65 0.0 0.0 0.00 0.28 0.28 96 1015.5
20260903135019 65 0.0 2.0 0.00 0.28 0.28 96 1015.6
20260903134020 65 0.0 0.0 0.00 0.28 0.28 96 1015.8
20260903133019 64 0.0 0.0 0.00 0.28 0.28 96 1015.7
20260903132020 64 0.0 0.0 0.00 0.28 0.28 95 1015.6
20260903131019 64 0.0 0.0 0.00 0.28 0.28 95 1015.7
20260903130039 64 0.0 0.0 0.00 0.28 0.28 96 1015.7
20260903125019 64 0.0 0.0 0.00 0.28 0.28 95 1015.7
20260903124040 64 0.0 0.0 0.00 0.28 0.28 95 1015.8
20260903123019 63 0.0 0.0 0.00 0.28 0.28 95 1016.1
20260903122019 63 0.0 0.0 0.00 0.28 0.28 95 1016.2
20260903121019 63 0.0 0.0 0.00 0.28 0.28 95 1016.2
20260903120019 62 0.0 0.0 0.00 0.28 0.28 95 1016.3
20260903115019 62 0.0 0.0 0.00 0.28 0.28 95 1016.5
20260903114019 62 0.0 0.0 0.00 0.28 0.28 95 1016.6
20260903113019 62 0.0 0.0 0.00 0.28 0.28 94 1016.6
20260903112019 62 0.0 0.0 0.01 0.28 0.28 94 1016.6
20260903111019 62 0.0 0.0 0.01 0.28 0.28 94 1016.6
20260903110019 62 0.0 0.0 0.04 0.28 0.28 94 1016.5
20260903105019 62 0.0 0.0 0.07 0.28 0.28 94 1016.5
20260903104019 62 0.0 0.0 0.18 0.28 0.28 94 1016.6
20260903103019 62 0.0 0.0 0.20 0.28 0.28 94 1016.7
20260903102019 62 0.0 0.0 0.20 0.27 0.27 94 1016.6
20260903101019 62 0.0 0.0 0.20 0.27 0.27 93 1016.5
20260903100019 62 0.0 0.0 0.20 0.24 0.24 93 1016.5
20260903095039 62 0.0 0.0 0.19 0.21 0.21 93 1016.6
20260903094019 62 0.0 0.0 0.08 0.10 0.10 92 1016.3
20260903093019 62 0.0 0.0 0.06 0.08 0.08 92 1016.7
20260903092019 62 0.0 0.0 0.05 0.07 0.07 92 1016.8
20260903091019 62 0.0 1.0 0.05 0.07 0.07 91 1016.7
20260903090039 62 45 1.0 4.0 0.03 0.04 0.04 91 1016.6
20260903085019 62 90 1.0 3.0 0.02 0.02 0.02 91 1016.6
20260903084039 62 45 1.0 2.0 0.02 0.02 0.02 90 1016.7
20260903083019 63 68 1.0 3.0 0.02 0.02 0.02 89 1016.7
20260903082038 63 68 1.0 2.0 0.02 0.02 0.02 88 1017.1
20260903081019 63 0.0 0.0 0.02 0.02 0.02 87 1017.3
20260903080019 64 338 1.0 4.0 0.01 0.01 0.01 86 1017.6
20260903075019 64 68 1.0 3.0 0.00 0.00 0.00 85 1017.3
20260903074019 64 135 1.0 5.0 0.00 0.00 0.00 84 1017.3
20260903073039 64 68 2.0 7.0 0.00 0.00 0.00 84 1017.2
20260903072019 64 68 2.0 5.0 0.00 0.00 0.00 84 1017.4
20260903071018 64 68 1.0 4.0 0.00 0.00 0.00 84 1017.4
20260903070059 64 23 1.0 3.0 0.00 0.00 0.00 83 1017.5
20260903065019 64 68 2.0 5.0 0.00 0.00 0.00 83 1017.5
20260903064019 64 68 2.0 4.0 0.00 0.00 0.00 84 1018.0
20260903063018 64 68 1.0 3.0 0.00 0.00 0.00 84 1018.6
20260903062018 64 45 1.0 4.0 0.00 0.00 0.00 84 1018.7
20260903061018 64 45 1.0 4.0 0.00 0.00 0.00 83 1018.8
20260903060018 64 68 1.0 5.0 0.00 0.00 0.00 83 1019.1
20260903055018 64 68 1.0 3.0 0.00 0.00 0.00 83 1019.2
20260903054019 64 68 1.0 4.0 0.00 0.00 0.00 83 1019.4
20260903053018 64 68 2.0 4.0 0.00 0.00 0.00 83 1019.7
20260903052018 65 338 1.0 3.0 0.00 0.00 0.00 82 1019.7
20260903051018 65 68 2.0 4.0 0.00 0.00 0.00 82 1019.5
20260903050038 65 68 1.0 3.0 0.00 0.00 0.00 81 1019.4
20260903045018 65 0.0 3.0 0.00 0.00 0.00 82 1019.7
20260903044018 65 90 1.0 3.0 0.00 0.00 0.00 81 1019.9
20260903043018 65 68 1.0 4.0 0.00 0.00 0.00 81 1019.9
20260903042018 65 68 1.0 4.0 0.00 0.00 0.00 80 1019.9
20260903041019 65 90 1.0 4.0 0.00 0.00 0.00 80 1019.7
20260903040018 65 68 1.0 2.0 0.00 0.00 0.00 80 1019.9
20260903035019 65 68 1.0 4.0 0.00 0.00 0.00 79 1019.7
20260903034019 65 68 2.0 5.0 0.00 0.00 0.00 79 1019.5
20260903033018 65 68 1.0 4.0 0.00 0.00 0.00 79 1019.7
20260903032018 65 68 1.0 3.0 0.00 0.00 0.00 79 1020.0
20260903031039 65 45 1.0 3.0 0.00 0.00 0.00 79 1020.5
20260903030039 66 68 2.0 4.0 0.00 0.00 0.00 79 1020.5
20260903025018 65 0.0 2.0 0.00 0.00 0.00 79 1020.7
20260903024018 66 45 1.0 3.0 0.00 0.00 0.00 79 1020.6
20260903023019 66 68 1.0 3.0 0.00 0.00 0.00 80 1020.6
20260903022059 66 0.0 0.0 0.00 0.00 0.00 80 1020.7
20260903021018 66 0.0 2.0 0.00 0.00 0.00 79 1020.7
20260903020018 66 68 1.0 2.0 0.00 0.00 0.00 79 1020.8
20260903015018 66 90 1.0 4.0 0.00 0.00 0.00 79 1020.7
20260903014019 66 68 1.0 3.0 0.00 0.00 0.00 79 1020.8
20260903013018 66 45 1.0 3.0 0.00 0.00 0.00 78 1020.6
20260903012018 67 68 1.0 3.0 0.00 0.00 0.00 78 1020.4
20260903011038 67 68 2.0 5.0 0.00 0.00 0.00 77 1020.6
20260903010018 67 68 1.0 2.0 0.00 0.00 0.00 77 1020.9
20260903005018 67 45 2.0 5.0 0.00 0.00 0.00 77 1020.8
20260903004018 67 68 1.0 3.0 0.00 0.00 0.00 78 1020.7
20260903003018 67 68 2.0 5.0 0.00 0.00 0.00 79 1020.7
20260903002018 67 68 1.0 3.0 0.00 0.00 0.00 79 1020.9
20260903001018 67 90 2.0 4.0 0.00 0.00 0.00 79 1020.7
20260903000018 68 90 2.0 4.0 0.00 0.00 0.00 79 1020.9
20260902235018 68 68 2.0 6.0 0.00 0.00 0.00 78 1021.0
20260902234018 68 90 2.0 5.0 0.00 0.00 0.00 78 1021.2
20260902233038 68 90 2.0 4.0 0.00 0.00 0.00 77 1021.2
20260902232018 68 90 2.0 4.0 0.00 0.00 0.00 77 1021.4
20260902231018 69 68 2.0 4.0 0.00 0.00 0.00 76 1021.5
20260902230018 69 90 2.0 5.0 0.00 0.00 0.00 76 1021.5
20260902225038 69 90 2.0 7.0 0.00 0.00 0.00 75 1021.4
20260902224038 69 68 2.0 4.0 0.00 0.00 0.00 74 1021.5
20260902223018 69 68 2.0 6.0 0.00 0.00 0.00 74 1021.6
20260902222018 70 90 2.0 6.0 0.00 0.00 0.00 73 1021.8
20260902221018 70 90 3.0 5.0 0.00 0.00 0.00 73 1021.8
20260902220018 70 90 2.0 4.0 0.00 0.00 0.00 73 1021.6
20260902215018 70 90 3.0 6.0 0.00 0.00 0.00 72 1021.4
20260902214018 71 90 2.0 4.0 0.00 0.00 0.00 72 1021.4
20260902213038 71 90 4.0 7.0 0.00 0.00 0.00 71 1021.4
20260902212018 71 90 3.0 7.0 0.00 0.00 0.00 71 1021.2
20260902211018 71 90 5.0 11.0 0.00 0.00 0.00 70 1020.8
20260902210018 72 68 4.0 10.0 0.00 0.00 0.00 70 1021.0
20260902205058 72 68 4.0 9.0 0.00 0.00 0.00 70 1021.2
20260902204018 72 90 3.0 8.0 0.00 0.00 0.00 71 1021.5
20260902203018 72 90 4.0 9.0 0.00 0.00 0.00 69 1021.6
20260902202018 73 135 3.0 6.0 0.00 0.00 0.00 70 1021.6
20260902201018 73 68 4.0 7.0 0.00 0.00 0.00 69 1021.9
20260902200018 73 68 2.0 4.0 0.00 0.00 0.00 68 1021.8
20260902195018 73 90 2.0 6.0 0.00 0.00 0.00 69 1021.9
20260902194139 73 90 3.0 6.0 0.00 0.00 0.00 69 1021.9
20260902193018 74 68 4.0 7.0 0.00 0.00 0.00 69 1021.8
20260902192017 74 68 4.0 8.0 0.00 0.00 0.00 68 1021.9
20260902191018 74 68 2.0 6.0 0.00 0.00 0.00 69 1021.9
20260902190018 75 90 4.0 8.0 0.00 0.04 0.00 67 1022.0
20260902185037 75 68 3.0 7.0 0.00 0.04 0.00 68 1022.0
20260902184118 74 90 2.0 6.0 0.00 0.04 0.00 70 1022.0
20260902183038 74 68 3.0 8.0 0.00 0.04 0.00 69 1022.0